Location: Biharia
(46.4333°N, 22.8000°E)
Time: 04:58:49
(UTC+00:00)

Cosmos 494 Rocket - Pass Details

Date: 28 May 2022
Orbit: 742 x 770 km, 74.1° (Epoch: 05 July)

Event Time Altitude Azimuth Distance (km) Brightness Sun altitude
Rises 23:08:59 0° 330° (NNW) 3,192 8.0 -21.3°
Reaches altitude 10° 23:11:32 10° 321° (NW) 2,263 6.9 -21.2°
Maximum altitude 23:16:04 33° 259° (WSW) 1,244 4.9 -21.1°
Enters shadow 23:16:38 32° 245° (WSW) 1,267 4.8 -21.0°
